Sigfox identifier Datetime Temperature Humidity SNR
003BF637 2019-02-20 13:48:26 20.8 23 24
003BF637 2019-02-20 13:17:14 20.8 24 24.1
003BF637 2019-02-20 12:45:59 20.8 24 23.3
003BF637 2019-02-20 12:14:48 20.8 25 23.4
003BF637 2019-02-20 11:43:36 20.8 26 23.3
003BF637 2019-02-20 11:12:22 20.8 26 22.5
003BF637 2019-02-20 10:41:11 20.7 26 22.6
003BF637 2019-02-20 10:09:58 20.7 27 21.6
003BF637 2019-02-20 09:38:46 20.6 27 21.6
003BF637 2019-02-20 09:07:34 20.6 27 20.2
003BF637 2019-02-20 08:36:23 20.6 27 18.1
003BF637 2019-02-20 08:05:10 20.6 27 17.9
003BF637 2019-02-20 07:33:57 20.6 27 17.9
003BF637 2019-02-20 07:02:44 20.6 27 18.3
003BF637 2019-02-20 06:31:31 20.6 27 18.5
003BF637 2019-02-20 06:00:18 20.6 27 18.3
003BF637 2019-02-20 05:29:06 20.7 27 18
003BF637 2019-02-20 04:57:53 20.9 26 18.2
003BF637 2019-02-20 04:56:40 20.7 27 17.8
003BF637 2019-02-20 04:25:28 20.7 27 17.8
003BF637 2019-02-20 03:54:16 20.7 27 17.8
003BF637 2019-02-20 03:23:05 20.7 27 17.4
003BF637 2019-02-20 02:51:51 20.7 27 19.7
003BF637 2019-02-20 02:20:39 20.7 27 19.7
003BF637 2019-02-20 01:49:26 20.7 27 19.6
003BF637 2019-02-20 01:18:13 20.7 27 19.5
003BF637 2019-02-20 00:46:59 20.7 27 19.2
003BF637 2019-02-20 00:15:47 20.7 27 20.8
003BF637 2019-02-19 23:44:31 20.7 27 20.9
003BF637 2019-02-19 23:13:18 20.8 27 20.8
003BF637 2019-02-19 22:42:06 20.8 27 20.7
003BF637 2019-02-19 22:10:53 20.8 27 20.6
003BF637 2019-02-19 21:39:42 20.8 26 20.5
003BF637 2019-02-19 21:08:27 20.8 26 20.6
003BF637 2019-02-19 20:37:15 20.8 26 20.6
003BF637 2019-02-19 20:06:02 20.9 27 20.8
003BF637 2019-02-19 19:34:49 20.9 27 20.9
003BF637 2019-02-19 19:03:35 20.9 27 20.9
003BF637 2019-02-19 18:32:21 20.9 27 20.7
003BF637 2019-02-19 18:01:07 20.9 27 20.6
003BF637 2019-02-19 17:29:54 21 27 20.6
003BF637 2019-02-19 16:58:40 21 27 20.6
003BF637 2019-02-19 16:27:27 21 27 20.6
003BF637 2019-02-19 15:56:13 21 27 20.6
003BF637 2019-02-19 15:24:59 21 27 20.5
003BF637 2019-02-19 14:53:49 21 27 21.8
003BF637 2019-02-19 14:22:37 20.9 27 21.9
003BF637 2019-02-19 13:51:21 20.9 27 20.6
003BF637 2019-02-19 13:20:08 20.9 27 20.6
003BF637 2019-02-19 12:48:56 20.9 26 20.6
003BF637 2019-02-19 12:17:44 20.9 26 20.7
003BF637 2019-02-19 11:46:33 20.9 26 21
003BF637 2019-02-19 11:15:18 20.9 26 19.3
003BF637 2019-02-19 10:44:07 20.8 26 19.2
003BF637 2019-02-19 09:41:42 20.7 25 19.2
003BF637 2019-02-19 09:10:33 20.7 25 19.2
003BF637 2019-02-19 08:39:24 20.7 25 19.2
003BF637 2019-02-19 08:08:07 20.7 25 19.5
003BF637 2019-02-19 07:36:54 20.7 24 19.4
003BF637 2019-02-19 07:05:42 20.7 24 19.6
003BF637 2019-02-19 06:34:29 20.7 24 19.3
003BF637 2019-02-19 06:03:16 20.7 24 19.1
003BF637 2019-02-19 05:32:03 20.7 24 20.8
003BF637 2019-02-19 05:00:50 20.7 24 20.8
003BF637 2019-02-19 04:29:36 20.7 24 20.8
003BF637 2019-02-19 03:58:22 20.7 24 23
003BF637 2019-02-19 03:27:10 20.9 23 23.1
003BF637 2019-02-19 03:25:58 20.7 24 23.2
003BF637 2019-02-19 02:54:45 20.7 24 23.2
003BF637 2019-02-19 02:23:32 20.7 23 22.3
003BF637 2019-02-19 01:52:19 20.7 23 22.4
003BF637 2019-02-19 01:21:07 20.7 23 22.5
003BF637 2019-02-19 00:49:53 20.7 23 22.6
003BF637 2019-02-19 00:18:39 20.7 23 22.8
003BF637 2019-02-18 23:47:27 20.7 23 22.9
003BF637 2019-02-18 23:16:11 20.7 23 22.8
003BF637 2019-02-18 22:44:57 20.7 23 23
003BF637 2019-02-18 22:13:43 20.7 22 23.1
003BF637 2019-02-18 21:42:30 20.7 22 23.2
003BF637 2019-02-18 21:11:18 20.8 22 23.3
003BF637 2019-02-18 20:40:09 20.8 22 23.4
003BF637 2019-02-18 20:08:52 20.8 22 23.3
003BF637 2019-02-18 19:37:38 20.8 22 23.6
003BF637 2019-02-18 19:06:26 20.8 22 23.8
003BF637 2019-02-18 18:35:13 20.8 21 23.9
003BF637 2019-02-18 18:04:01 20.9 21 24.1
003BF637 2019-02-18 17:32:47 20.9 21 23.5
003BF637 2019-02-18 16:30:26 20.9 21 23.6
003BF637 2019-02-18 15:59:10 21 21 23.7
003BF637 2019-02-18 15:27:56 21 21 23.1
003BF637 2019-02-18 14:56:44 21.1 21 22.4
003BF637 2019-02-18 13:54:21 21.2 20 22.3
003BF637 2019-02-18 13:23:08 21.2 20 22.5
003BF637 2019-02-18 12:51:56 21.3 19 22.7
003BF637 2019-02-18 12:20:43 21.4 19 23.4
003BF637 2019-02-18 11:49:30 21.3 19 23.5
003BF637 2019-02-18 11:18:17 21.3 19 23.5
003BF637 2019-02-18 10:47:04 21.2 19 23.5
003BF637 2019-02-18 10:15:51 21.2 19 23.5
003BF637 2019-02-18 09:44:38 21.1 19 23.5
003BF637 2019-02-18 09:13:24 21 19 23.5
003BF637 2019-02-18 08:42:11 20.9 18 23.6
003BF637 2019-02-18 08:10:58 20.9 19 23.7
003BF637 2019-02-18 07:39:45 20.8 19 23.8
003BF637 2019-02-18 07:08:33 20.8 18 23.8
003BF637 2019-02-18 06:37:20 20.8 18 23.9
003BF637 2019-02-18 06:06:07 20.8 18 23.9
003BF637 2019-02-18 05:34:53 20.8 18 24
003BF637 2019-02-18 05:03:40 20.8 18 23.8
003BF637 2019-02-18 04:32:28 20.8 18 23.8
003BF637 2019-02-18 04:01:15 20.8 18 23.9
003BF637 2019-02-18 03:30:03 20.8 19 24
003BF637 2019-02-18 02:58:51 20.8 19 24
003BF637 2019-02-18 02:27:38 20.8 19 24
003BF637 2019-02-18 01:56:26 21.1 19 24
003BF637 2019-02-18 01:55:13 20.8 19 23.9
003BF637 2019-02-18 01:24:00 20.9 19 24.1
003BF637 2019-02-18 00:52:48 20.9 19 24
003BF637 2019-02-18 00:21:36 20.9 19 24
003BF637 2019-02-17 23:50:23 20.9 19 24
003BF637 2019-02-17 23:19:11 20.9 19 24.1
003BF637 2019-02-17 22:47:58 20.9 19 24.2
003BF637 2019-02-17 22:16:45 20.9 19 24.3
003BF637 2019-02-17 21:45:31 20.9 19 24.3
003BF637 2019-02-17 21:14:18 20.9 20 24.3
003BF637 2019-02-17 20:43:04 20.9 20 24.4
003BF637 2019-02-17 20:11:50 20.9 20 24.4
003BF637 2019-02-17 19:40:36 21 20 24.2
003BF637 2019-02-17 19:09:21 20.9 20 24.1
003BF637 2019-02-17 18:38:07 21 20 24.2
003BF637 2019-02-17 18:06:52 21 20 24.2
003BF637 2019-02-17 17:35:39 21 20 24.1
003BF637 2019-02-17 17:04:24 21 20 24
003BF637 2019-02-17 16:33:09 21 20 24
003BF637 2019-02-17 16:01:54 21 20 24
003BF637 2019-02-17 15:30:39 21 20 24.4
003BF637 2019-02-17 14:59:24 21.1 21 24.3
003BF637 2019-02-17 14:28:10 21.1 21 24.4
003BF637 2019-02-17 13:56:57 21.1 21 24.4
003BF637 2019-02-17 13:25:43 21.1 21 24.5
003BF637 2019-02-17 12:54:31 21 20 24.6
003BF637 2019-02-17 12:23:18 21 20 24.5
003BF637 2019-02-17 11:52:05 21 20 24.7
003BF637 2019-02-17 11:20:52 20.9 21 24.7
003BF637 2019-02-17 10:49:39 20.9 21 24.2
003BF637 2019-02-17 10:18:26 20.9 21 24.2
003BF637 2019-02-17 09:47:12 20.9 21 24.2
003BF637 2019-02-17 09:15:58 20.9 21 24.3
003BF637 2019-02-17 08:44:44 20.9 21 24.2
003BF637 2019-02-17 08:13:30 21 21 24.2
003BF637 2019-02-17 07:42:16 21 21 24.2
003BF637 2019-02-17 07:11:03 21 22 24.1
003BF637 2019-02-17 06:39:50 21 22 24.2
003BF637 2019-02-17 06:08:36 21 22 24.3
003BF637 2019-02-17 05:37:21 21 22 24.4
003BF637 2019-02-17 05:06:07 21 22 24.5
003BF637 2019-02-17 04:34:52 21 22 24.5
003BF637 2019-02-17 04:03:37 21 23 24.5
003BF637 2019-02-17 03:32:22 21 23 24.5
003BF637 2019-02-17 03:01:07 21 23 24.5
003BF637 2019-02-17 02:29:53 21 23 24.2
003BF637 2019-02-17 01:58:37 21 24 24.2
003BF637 2019-02-17 01:27:22 21 24 24.1
003BF637 2019-02-17 00:56:07 21 24 24.1
003BF637 2019-02-17 00:24:52 21.2 24 24.1
003BF637 2019-02-17 00:23:39 21 24 24.1
003BF637 2019-02-16 23:52:25 21 24 24
003BF637 2019-02-16 23:21:10 21 24 23.8
003BF637 2019-02-16 22:49:56 21.1 24 23.8
003BF637 2019-02-16 22:18:41 21.1 24 23.8
003BF637 2019-02-16 21:47:27 21.1 24 23.7
003BF637 2019-02-16 21:16:13 21.1 25 23.7
003BF637 2019-02-16 20:44:57 21.1 25 23.6
003BF637 2019-02-16 20:13:43 21 25 23.6
003BF637 2019-02-16 19:42:28 21.1 25 23.6
003BF637 2019-02-16 19:11:13 21.1 25 24.1
003BF637 2019-02-16 18:39:59 21.1 25 24.2
003BF637 2019-02-16 18:08:44 21.2 25 24.3
003BF637 2019-02-16 17:37:29 21.2 25 24.2
003BF637 2019-02-16 17:06:15 21.2 25 24.1
003BF637 2019-02-16 16:34:59 21.3 25 23.9
003BF637 2019-02-16 16:03:43 21.3 25 23.9
003BF637 2019-02-16 15:32:29 21.3 25 23.9
003BF637 2019-02-16 15:01:15 21.3 25 23.9
003BF637 2019-02-16 14:30:01 21.3 25 23.8
003BF637 2019-02-16 13:58:46 21.2 25 23.6
003BF637 2019-02-16 13:27:32 21.2 25 23.8
003BF637 2019-02-16 12:56:16 21.1 25 23.9
003BF637 2019-02-16 12:24:59 21.1 25 23.9
003BF637 2019-02-16 11:53:43 21.1 25 23.7
003BF637 2019-02-16 11:22:27 21 25 23.7
003BF637 2019-02-16 10:51:12 21 25 23.6
003BF637 2019-02-16 10:19:57 21 25 23.7
003BF637 2019-02-16 09:48:43 21 25 23.6
003BF637 2019-02-16 09:17:28 21 25 23.7
003BF637 2019-02-16 08:46:13 21 25 23.6
003BF637 2019-02-16 08:14:58 21 25 23.7
003BF637 2019-02-16 07:43:44 21 25 23.6
003BF637 2019-02-16 07:12:30 21 25 23.7
003BF637 2019-02-16 06:41:15 21 25 23.7
003BF637 2019-02-16 06:10:00 21 25 23
003BF637 2019-02-16 05:38:46 21 25 23
003BF637 2019-02-16 05:07:33 21 25 22.9
003BF637 2019-02-16 04:36:18 21 25 22.9
003BF637 2019-02-16 04:05:03 21 25 22.9
003BF637 2019-02-16 03:33:49 21 25 23
003BF637 2019-02-16 03:02:33 21 25 22.9
003BF637 2019-02-16 02:31:19 21.1 25 23
003BF637 2019-02-16 02:00:04 21.1 25 23
003BF637 2019-02-16 01:28:50 21.1 25 23
003BF637 2019-02-16 00:57:35 21.1 25 23
003BF637 2019-02-16 00:26:19 21.1 25 22.6
003BF637 2019-02-15 23:55:05 21.2 25 22.5
003BF637 2019-02-15 23:23:51 21.2 25 22.4
003BF637 2019-02-15 22:52:36 21.5 25 22.5
003BF637 2019-02-15 22:51:23 21.3 25 22.5
003BF637 2019-02-15 22:20:09 21.3 25 23.3
003BF637 2019-02-15 21:48:54 21.4 25 23.2
003BF637 2019-02-15 21:17:38 21.4 25 23.2
003BF637 2019-02-15 20:46:23 21.5 25 23.3
003BF637 2019-02-15 20:15:07 21.5 25 23.3
003BF637 2019-02-15 19:43:52 21.6 25 23.1
003BF637 2019-02-15 19:12:36 21.7 25 23.4
003BF637 2019-02-15 18:41:19 21.7 25 23.9
003BF637 2019-02-15 18:10:05 21.7 25 24
003BF637 2019-02-15 17:38:51 21.7 24 24.1
003BF637 2019-02-15 17:07:36 21.7 24 24.1
003BF637 2019-02-15 16:36:22 21.7 24 24
003BF637 2019-02-15 16:05:08 21.7 24 24.1
003BF637 2019-02-15 15:33:53 21.7 24 24.1
003BF637 2019-02-15 15:02:39 21.7 23 24
003BF637 2019-02-15 14:31:24 21.7 23 24.2
003BF637 2019-02-15 14:00:10 21.6 24 24.2
003BF637 2019-02-15 13:28:54 21.6 24 24.2
003BF637 2019-02-15 12:57:39 21.6 24 24.2
003BF637 2019-02-15 12:26:25 21.5 24 24.3
003BF637 2019-02-15 11:55:09 21.5 24 24.4
003BF637 2019-02-15 11:23:54 21.5 24 24.4
003BF637 2019-02-15 10:52:40 21.4 24 24.5
003BF637 2019-02-15 10:21:25 21.4 24 24.6
003BF637 2019-02-15 09:50:10 21.3 25 24.7
003BF637 2019-02-15 09:18:55 21.3 25 24.2
003BF637 2019-02-15 08:47:41 21.3 25 24.4
003BF637 2019-02-15 08:16:26 21.2 25 24.5
003BF637 2019-02-15 07:45:12 21.2 25 24.4
003BF637 2019-02-15 07:13:58 21.2 25 24.3
003BF637 2019-02-15 06:42:44 21.2 25 24.3
003BF637 2019-02-15 06:11:30 21.2 25 24.2
003BF637 2019-02-15 05:40:15 21.2 25 23.6
003BF637 2019-02-15 05:09:01 21.2 25 23.6
003BF637 2019-02-15 04:37:47 21.2 25 23.4
003BF637 2019-02-15 04:06:33 21.2 25 23.4
003BF637 2019-02-15 03:35:18 21.2 25 23.4
003BF637 2019-02-15 03:04:03 21.2 25 23.2
003BF637 2019-02-15 02:32:49 21.2 25 23.1
003BF637 2019-02-15 02:01:34 21.2 25 23
003BF637 2019-02-15 01:30:20 21.3 25 22.8
003BF637 2019-02-15 00:59:06 21.3 25 22.7
003BF637 2019-02-15 00:27:52 21.3 25 22.5
003BF637 2019-02-14 23:56:37 21.3 25 22.4
003BF637 2019-02-14 23:25:22 21.3 25 22.2
003BF637 2019-02-14 22:54:07 21.4 25 22
003BF637 2019-02-14 22:22:51 21.4 25 22.1
003BF637 2019-02-14 21:51:37 21.4 25 21.9
003BF637 2019-02-14 21:20:22 21.7 24 21.5
003BF637 2019-02-14 21:19:09 21.5 24 21.5
003BF637 2019-02-14 20:47:54 21.6 24 21.5
003BF637 2019-02-14 20:16:39 21.6 24 21.2
003BF637 2019-02-14 19:45:23 21.7 24 21.2
003BF637 2019-02-14 19:14:07 21.8 24 21.1
003BF637 2019-02-14 18:42:53 21.8 24 21.3
003BF637 2019-02-14 18:11:37 21.8 24 21.4
003BF637 2019-02-14 17:40:22 21.9 24 21.3
003BF637 2019-02-14 17:09:08 21.9 24 21.3
003BF637 2019-02-14 16:37:53 21.9 24 21.2
003BF637 2019-02-14 16:06:37 21.8 24 21.4
003BF637 2019-02-14 15:35:21 21.8 23 21.4
003BF637 2019-02-14 15:04:07 21.7 24 21.8
003BF637 2019-02-14 14:32:52 21.7 24 22
003BF637 2019-02-14 14:01:37 21.6 23 22.1
003BF637 2019-02-14 13:30:25 21.5 23 22.2
003BF637 2019-02-14 12:59:07 21.5 24 22.3
003BF637 2019-02-14 12:27:54 21.4 23 22.4
003BF637 2019-02-14 11:56:39 21.3 23 22.5
003BF637 2019-02-14 11:25:24 21.3 24 22.5
003BF637 2019-02-14 10:54:10 21.1 24 22.6
003BF637 2019-02-14 10:22:56 21 24 22.7
003BF637 2019-02-14 09:51:41 20.9 23 22.7
003BF637 2019-02-14 09:20:27 20.9 24 22.7
003BF637 2019-02-14 08:49:12 20.8 24 22.8
003BF637 2019-02-14 08:17:58 20.8 24 22.8
003BF637 2019-02-14 07:46:43 20.8 24 22.7
003BF637 2019-02-14 07:15:29 20.8 25 23.4
003BF637 2019-02-14 06:44:15 20.8 25 23.3
003BF637 2019-02-14 06:12:59 20.8 25 23.4
003BF637 2019-02-14 05:41:44 20.8 25 23.3
003BF637 2019-02-14 05:10:28 20.8 25 23.3
003BF637 2019-02-14 04:39:14 20.8 25 23.2
003BF637 2019-02-14 04:08:00 20.8 25 23.1
003BF637 2019-02-14 03:36:47 20.9 25 23.1
003BF637 2019-02-14 03:05:33 20.8 25 23.1
003BF637 2019-02-14 02:34:19 20.8 25 23.1
003BF637 2019-02-14 02:03:03 20.9 25 22.8
003BF637 2019-02-14 01:31:48 20.9 25 22.7
003BF637 2019-02-14 01:00:32 20.9 25 22.7
003BF637 2019-02-14 00:29:17 20.9 24 22.6
003BF637 2019-02-13 23:58:02 20.9 24 22.4
003BF637 2019-02-13 23:26:47 20.9 24 22.3
003BF637 2019-02-13 22:55:32 20.9 24 22.3
003BF637 2019-02-13 22:24:19 21 24 22.3
003BF637 2019-02-13 21:53:04 21 24 22.3
003BF637 2019-02-13 21:21:50 21.1 25 22.3
003BF637 2019-02-13 20:50:36 21.1 25 22.4
003BF637 2019-02-13 20:19:21 21.2 25 22.4
003BF637 2019-02-13 19:48:07 21.5 25 22.4
003BF637 2019-02-13 19:46:54 21.2 25 22.3
003BF637 2019-02-13 19:15:39 21.3 25 22.2
003BF637 2019-02-13 18:44:25 21.4 25 21.2
003BF637 2019-02-13 18:13:10 21.5 26 21.1
003BF637 2019-02-13 17:41:55 21.4 25 21.1
003BF637 2019-02-13 17:10:40 21.4 25 20.9
003BF637 2019-02-13 16:39:26 21.3 26 21
003BF637 2019-02-13 16:08:12 21.3 26 21.5
003BF637 2019-02-13 15:36:58 21.2 25 21.4
003BF637 2019-02-13 15:05:43 21.2 25 22.4
003BF637 2019-02-13 14:34:30 21.1 24 22.5
003BF637 2019-02-13 14:03:17 21.1 24 22.4
003BF637 2019-02-13 13:32:03 21.1 24 22.5
003BF637 2019-02-13 13:00:48 21.1 24 22.6
003BF637 2019-02-13 12:29:33 21.1 24 22.6
003BF637 2019-02-13 11:58:19 21.1 24 22.7
003BF637 2019-02-13 11:27:04 21 24 22.8
003BF637 2019-02-13 10:55:49 20.9 23 23
003BF637 2019-02-13 10:24:35 20.9 23 22.9
003BF637 2019-02-13 09:53:21 20.9 22 22.8
003BF637 2019-02-13 09:22:09 20.8 22 22.8
003BF637 2019-02-13 08:50:56 20.8 21 22.9
003BF637 2019-02-13 08:19:42 20.8 20 22.8
003BF637 2019-02-13 07:48:30 20.8 20 22.8
003BF637 2019-02-13 07:17:16 20.8 19 22.8
003BF637 2019-02-13 06:46:02 20.7 19 22.8
003BF637 2019-02-13 06:14:50 20.8 19 22.8
003BF637 2019-02-13 05:43:35 20.8 19 23
003BF637 2019-02-13 05:12:23 20.8 19 22.9
003BF637 2019-02-13 04:41:08 20.8 19 22.9
003BF637 2019-02-13 04:09:54 20.8 19 22.8
003BF637 2019-02-13 03:38:39 20.8 19 22.7
003BF637 2019-02-13 03:07:25 20.8 19 22.4
003BF637 2019-02-13 02:36:12 20.9 19 22.4
003BF637 2019-02-13 02:04:58 20.9 19 21.3
003BF637 2019-02-13 01:33:45 20.9 18 21.2
003BF637 2019-02-13 01:02:30 20.9 19 21
003BF637 2019-02-13 00:31:16 20.9 19 20.8
003BF637 2019-02-13 00:00:02 20.9 19 20.7
003BF637 2019-02-12 23:28:47 20.9 19 20.4
003BF637 2019-02-12 22:57:34 21 19 20.5
003BF637 2019-02-12 22:26:20 21 19 20.3
003BF637 2019-02-12 21:55:06 21.1 19 21.5
003BF637 2019-02-12 21:23:51 21.2 20 21.7
003BF637 2019-02-12 20:52:36 21.3 21 21.9
003BF637 2019-02-12 20:21:22 21.3 20 21.8
003BF637 2019-02-12 19:50:07 21.4 20 21.7
003BF637 2019-02-12 19:18:53 21.5 20 21.9
003BF637 2019-02-12 18:47:39 21.5 20 22
003BF637 2019-02-12 18:16:25 21.7 19 22
003BF637 2019-02-12 18:15:16 21.5 19 22
003BF637 2019-02-12 17:43:58 21.6 19 22.2
003BF637 2019-02-12 17:12:44 21.7 19 22.1
003BF637 2019-02-12 16:41:28 21.8 19 22.3
003BF637 2019-02-12 16:10:13 21.8 19 22.5
003BF637 2019-02-12 15:38:58 21.8 19 22.6
003BF637 2019-02-12 15:07:42 21.7 19 22.6
003BF637 2019-02-12 14:36:27 21.5 19 22.7
003BF637 2019-02-12 14:05:12 21.3 20 22.7
003BF637 2019-02-12 13:33:55 21.3 20 22.7
003BF637 2019-02-12 13:02:39 21.3 20 22.8
003BF637 2019-02-12 12:31:22 21.3 20 22.9
003BF637 2019-02-12 12:00:05 21.3 21 23.1
003BF637 2019-02-12 11:28:50 21.2 21 23.1
003BF637 2019-02-12 10:57:35 21.3 21 23.2
003BF637 2019-02-12 10:26:20 21.2 22 23.1
003BF637 2019-02-12 09:55:05 21 22 23.1
003BF637 2019-02-12 09:23:51 21 23 22.5
003BF637 2019-02-12 08:52:36 20.9 23 22.6
003BF637 2019-02-12 08:21:20 20.8 24 22.6
003BF637 2019-02-12 07:50:05 20.8 24 22.6
003BF637 2019-02-12 07:18:50 20.8 25 22.6
003BF637 2019-02-12 06:47:34 20.8 26 22.4
003BF637 2019-02-12 06:16:18 20.8 26 22.3
003BF637 2019-02-12 05:45:01 20.8 26 22.3
003BF637 2019-02-12 05:13:45 20.8 26 22.3
003BF637 2019-02-12 04:42:30 20.9 26 22.2
003BF637 2019-02-12 04:11:14 20.8 26 22.2
003BF637 2019-02-12 03:39:58 20.9 26 22
003BF637 2019-02-12 03:08:42 20.9 26 22
003BF637 2019-02-12 02:37:27 20.9 26 22
003BF637 2019-02-12 02:06:10 20.9 26 22
003BF637 2019-02-12 01:34:54 20.9 26 22
003BF637 2019-02-12 01:03:38 20.9 26 22.1
003BF637 2019-02-12 00:32:22 20.9 27 22.2
003BF637 2019-02-12 00:01:06 20.9 27 22.2
003BF637 2019-02-11 23:29:53 21 27 22
003BF637 2019-02-11 22:58:36 21 27 21.9
003BF637 2019-02-11 22:27:20 21.1 27 22.2
003BF637 2019-02-11 21:56:04 21.1 27 22.2
003BF637 2019-02-11 21:24:49 21.2 27 22.4
003BF637 2019-02-11 20:53:33 21.3 27 22.6
003BF637 2019-02-11 20:22:16 21.4 27 22
003BF637 2019-02-11 19:50:59 21.4 27 21.2
003BF637 2019-02-11 19:19:43 21.5 27 20.8
003BF637 2019-02-11 18:48:26 21.7 27 21.4
003BF637 2019-02-11 18:17:09 21.9 27 20.9
003BF637 2019-02-11 17:45:53 22 27 21.8
003BF637 2019-02-11 17:14:34 22.2 27 20.1
003BF637 2019-02-11 16:43:17 22.2 30 0